User: anonymous   Login
Location: Newark
(54.0500°N, 12.8333°E)
Time: 20:35:13
(UTC+00:00)
Language:

SR - Orbit

View from above orbital plane
View from above orbital plane
View from above satellite
View from above satellite

Ground track
Ground track

The orbit data is extracted from the following two-line orbital elements,

1    46U 60007B   20026.40727051 -.00000015 +00000-0 +20158-4 0  9996
2    46 066.6904 073.0244 0216553 238.9019 119.0683 14.49271016118381
Epoch (UTC): 26 January 2020 09:46:28
Eccentricity: 0.0216553
inclination: 66.6904°
perigee height: 574 km
apogee height: 882 km
right ascension of ascending node: 73.0244°
argument of perigee: 238.9019°
revolutions per day: 14.49271016
mean anomaly at epoch: 119.0683°
orbit number at epoch: 11838

The dashed part of the orbit path shows where the satellite is in the earth's shadow,  

DLR